Temp
1 0 -0 -0 -0 -0 -1 -1 -1 -2 -2 -2 -3 -4 -4 -5 -5 -5 -5 -5 -5 -4 -3 -1 -1 0 1 1 1 1 2 2 5 5 5 5 5 6 7 7 8 8 8 9 11
1 0 -0 -1 -1 -1 -1 -1 -2 -2 -2 -3 -4 -4 -5 -5 -6 -6 -6 -5 -4 -4 -4 -3 -2 -2 -1 0 1 0 1 2 5 5 5 5 4 6 6 6 7 7 8 10 9
1 0 -0 -1 -1 -1 -1 -2 -2 -3 -3 -4 -4 -5 -5 -6 -6 -6 -6 -6 -5 -4 -4 -3 -3 -2 -2 -1 0 1 1 3 5 5 4 3 4 5 5 5 6 7 8 9 9
1 0 -0 -1 -1 -1 -1 -2 -3 -3 -4 -5 -5 -5 -6 -6 -6 -7 -6 -6 -6 -5 -4 -3 -2 -2 -2 -1 -1 0 1 2 3 3 2 2 3 4 4 5 6 7 7 8 9
1 0 -0 -1 -1 -1 -2 -2 -3 -4 -5 -5 -5 -5 -6 -6 -7 -6 -6 -6 -5 -5 -4 -3 -3 -2 -2 -1 -0 0 1 2 1 2 2 2 3 4 4 5 6 6 7 7 8
0 0 -0 -1 -2 -2 -2 -2 -3 -4 -5 -5 -6 -6 -6 -7 -6 -6 -6 -6 -5 -5 -4 -4 -3 -3 -2 -1 0 -0 1 2 1 2 2 3 2 3 4 4 5 6 6 7 7
0 0 -1 -1 -2 -2 -2 -3 -4 -5 -5 -6 -6 -6 -6 -6 -6 -6 -6 -6 -6 -6 -5 -5 -4 -2 -2 -1 -1 -0 1 1 1 1 1 2 2 2 3 3 4 5 5 6 6
-0 -0 -1 -1 -2 -2 -2 -3 -4 -5 -5 -6 -6 -7 -7 -6 -6 -6 -6 -6 -6 -5 -4 -4 -3 -3 -2 -1 -1 -0 0 0 1 0 1 2 2 2 3 4 3 3 3 5 6
-0 -0 -1 -1 -2 -2 -2 -3 -4 -5 -5 -6 -7 -7 -8 -7 -7 -6 -6 -7 -6 -6 -5 -4 -3 -3 -2 -1 -1 -1 1 1 1 0 1 1 2 2 2 2 3 3 2 3 5
-0 -0 -1 -1 -2 -1 -2 -3 -4 -5 -5 -6 -6 -7 -7 -7 -7 -7 -6 -6 -6 -6 -5 -4 -4 -2 -2 -1 -0 0 2 2 1 0 -0 0 1 2 1 1 2 2 3 3 4
-0 -1 -1 -1 -2 -2 -2 -3 -4 -5 -5 -6 -7 -7 -7 -7 -7 -7 -7 -7 -6 -6 -5 -5 -3 -3 -2 -0 1 2 2 3 3 0 0 1 1 2 1 2 3 3 2 3 3
-0 -1 -1 -1 -1 -1 -2 -3 -4 -5 -5 -6 -7 -7 -6 -7 -7 -7 -7 -7 -7 -5 -5 -5 -4 -3 -2 -0 -0 1 1 0 1 0 0 1 2 1 1 3 3 2 2 3 3
0 -1 -0 -1 -1 -1 -2 -3 -4 -5 -5 -6 -6 -7 -7 -7 -8 -7 -7 -7 -7 -6 -5 -5 -3 -3 -2 -1 -1 1 1 1 1 0 -0 2 2 2 1 1 1 3 3 3 3
0 -0 -0 -1 -1 -1 -2 -3 -4 -5 -6 -6 -6 -6 -7 -7 -7 -6 -7 -6 -6 -6 -5 -4 -4 -3 -2 -1 1 1 1 1 1 0 1 1 5 4 2 2 3 4 4 5 4
0 0 -0 -1 -1 -2 -2 -3 -4 -5 -3 -6 -6 -6 -6 -7 -7 -7 -7 -6 -5 -5 -4 -4 -4 -3 -2 -1 -1 1 0 1 1 1 3 2 2 4 3 3 2 2 2 1 2
1 0 -0 -1 -1 -2 -2 -3 -4 -4 -4 -5 -5 -6 -7 -7 -6 -6 -5 -6 -6 -4 -4 -4 -4 -3 -3 -2 -2 -1 -1 -0 0 1 1 2 3 5 5 3 3 2 2 3 1
1 0 -0 -1 -1 -1 -2 -3 -4 -3 -5 -5 -5 -6 -6 -6 -6 -5 -5 -5 -5 -5 -4 -4 -4 -3 -3 -2 -1 -1 -0 0 0 -0 2 2 3 4 3 3 2 2 2 2 1
1 0 -0 -1 -1 -1 -2 -3 -3 -4 -5 -4 -5 -5 -6 -6 -5 -4 -4 -4 -4 -4 -3 -3 -4 -3 -3 -2 -2 -0 1 2 2 2 3 1 2 3 3 3 3 2 2 2 2
1 0 -0 -1 -1 -1 -2 -4 -3 -3 -4 -4 -4 -5 -5 -5 -5 -5 -5 -4 -4 -3 -3 -3 -3 -3 -3 -2 -2 -1 0 -0 1 1 3 3 3 3 2 3 2 3 3 3 3
0 1 -0 -1 -1 -2 -2 -3 -3 -3 -4 -4 -4 -4 -4 -5 -4 -4 -4 -3 -3 -3 -2 -3 -3 -3 -3 -2 -2 -2 -1 0 -0 1 2 3 3 5 3 2 3 3 3 3 3
0 1 -1 -1 -2 -2 -3 -3 -4 -3 -4 -3 -4 -3 -3 -3 -4 -3 -3 -2 -2 -2 -3 -3 -2 -3 -3 -3 -2 -2 -2 -1 0 0 3 4 5 4 2 2 2 2 3 3 3
1 0 -1 -1 -2 -2 -4 -3 -3 -4 -3 -3 -3 -3 -3 -3 -3 -3 -3 -3 -3 -3 -3 -2 -3 -3 -3 -3 -2 -2 -1 -0 -0 1 1 1 3 3 2 2 2 2 2 2 2
1 0 -1 -1 -2 -3 -3 -3 -3 -4 -3 -3 -3 -2 -2 -3 -2 -3 -4 -3 -3 -3 -3 -3 -3 -3 -3 -3 -3 -2 -2 -1 -0 -0 -0 2 3 2 2 2 2 2 3 3 2
1 0 -1 -1 -2 -3 -4 -4 -4 -3 -3 -3 -3 -3 -3 -2 -2 -3 -3 -3 -3 -3 -3 -3 -3 -2 -0 -1 -1 -2 -2 -2 -2 -2 -0 0 1 1 2 2 2 1 1 2 2
1 0 -1 -1 -2 -3 -3 -4 -4 -4 -3 -3 -3 -3 -3 -3 -3 -3 -3 -3 -3 -3 -3 -3 -3 -2 -2 -1 -1 -1 -2 -2 -2 -2 -1 0 1 1 1 1 1 0 1 1 1
1 0 0 -1 -2 -3 -3 -4 -5 -4 -3 -3 -4 -3 -3 -3 -3 -3 -3 -3 -3 -3 -3 -3 -3 -2 -2 -2 -2 -2 -1 -1 -2 -2 -2 -2 -1 -1 -0 -0 -1 -1 -0 -1 0
1 1 -0 -0 -2 -3 -4 -4 -4 -4 -4 -3 -3 -3 -3 -3 -3 -2 -3 -3 -3 -3 -3 -3 -3 -3 -2 -2 -3 -3 0 -0 -1 -2 -2 -2 -2 -1 -1 -1 -2 -2 -2 -2 -0
Height
3091 3087 3083 3079 3076 3073 3069 3065 3062 3058 3055 3050 3047 3045 3042 3040 3040 3041 3044 3046 3047 3051 3057 3063 3067 3074 3081 3087 3090 3098 3095 3104 3111 3116 3122 3121 3125 3128 3132 3136 3139 3143 3146 3149 3152
3088 3085 3080 3076 3073 3070 3065 3061 3058 3055 3051 3046 3043 3041 3038 3037 3036 3036 3039 3039 3043 3047 3051 3058 3064 3070 3075 3082 3086 3092 3096 3101 3110 3116 3119 3119 3124 3126 3132 3134 3138 3140 3143 3148 3150
3085 3081 3077 3072 3069 3066 3061 3058 3055 3051 3047 3044 3041 3038 3035 3034 3034 3031 3032 3035 3038 3042 3045 3053 3059 3066 3070 3078 3082 3087 3091 3103 3108 3113 3112 3117 3121 3124 3129 3132 3133 3138 3141 3144 3147
3082 3078 3073 3069 3065 3062 3058 3055 3051 3048 3045 3042 3039 3036 3033 3033 3035 3031 3031 3032 3033 3038 3043 3049 3056 3062 3067 3073 3078 3085 3090 3098 3106 3107 3106 3115 3118 3122 3126 3126 3133 3136 3140 3142 3145
3079 3074 3070 3066 3062 3059 3056 3052 3048 3045 3042 3041 3038 3036 3034 3033 3032 3030 3030 3030 3030 3032 3039 3047 3052 3060 3065 3071 3079 3083 3092 3098 3100 3100 3106 3112 3115 3120 3122 3126 3131 3135 3137 3140 3143
3077 3072 3068 3062 3058 3055 3053 3048 3045 3043 3040 3038 3037 3036 3034 3035 3030 3029 3029 3028 3028 3030 3035 3043 3050 3059 3065 3069 3074 3079 3087 3094 3095 3098 3105 3109 3113 3117 3121 3126 3130 3133 3135 3138 3141
3074 3069 3064 3059 3056 3053 3050 3045 3043 3041 3039 3037 3036 3035 3033 3034 3030 3028 3027 3027 3028 3030 3036 3040 3046 3050 3059 3066 3072 3080 3084 3093 3092 3097 3102 3108 3113 3113 3118 3124 3127 3130 3132 3135 3138
3071 3066 3061 3056 3053 3050 3047 3043 3040 3039 3037 3036 3034 3034 3033 3030 3028 3027 3026 3025 3026 3029 3033 3038 3040 3047 3058 3067 3072 3077 3086 3087 3090 3098 3101 3106 3108 3112 3116 3121 3125 3127 3130 3132 3136
3069 3063 3058 3054 3050 3048 3044 3041 3039 3038 3036 3034 3033 3032 3034 3029 3028 3026 3027 3026 3025 3026 3031 3036 3040 3045 3055 3063 3070 3073 3077 3085 3090 3094 3096 3102 3106 3111 3115 3119 3121 3125 3129 3130 3133
3066 3061 3056 3052 3049 3046 3042 3039 3038 3037 3035 3033 3032 3033 3031 3030 3027 3026 3027 3025 3026 3027 3030 3035 3038 3043 3051 3059 3061 3067 3075 3082 3087 3091 3093 3099 3103 3106 3106 3111 3116 3122 3126 3128 3129
3063 3059 3054 3050 3047 3044 3040 3038 3039 3038 3035 3034 3032 3030 3030 3029 3028 3027 3027 3025 3026 3027 3032 3034 3038 3043 3049 3059 3065 3070 3077 3079 3087 3087 3092 3097 3101 3104 3106 3109 3113 3117 3121 3126 3127
3061 3056 3052 3049 3046 3042 3039 3037 3036 3038 3036 3034 3031 3029 3028 3027 3027 3026 3027 3028 3026 3027 3032 3039 3040 3045 3054 3061 3063 3069 3074 3079 3083 3085 3091 3096 3098 3102 3103 3104 3107 3111 3116 3120 3124
3059 3055 3051 3047 3044 3042 3038 3037 3035 3035 3036 3035 3032 3029 3028 3028 3026 3026 3028 3027 3028 3029 3036 3040 3044 3046 3052 3058 3064 3068 3072 3080 3085 3087 3092 3095 3096 3097 3097 3100 3101 3103 3109 3114 3117
3056 3053 3050 3046 3044 3041 3038 3036 3035 3035 3037 3038 3034 3032 3030 3028 3027 3027 3027 3030 3032 3035 3040 3045 3046 3052 3056 3062 3066 3070 3077 3080 3082 3087 3090 3092 3088 3088 3092 3093 3094 3096 3099 3104 3112
3054 3051 3048 3044 3042 3040 3038 3036 3035 3037 3037 3040 3036 3033 3031 3031 3030 3030 3030 3032 3034 3038 3044 3047 3048 3053 3059 3064 3069 3073 3076 3078 3084 3087 3088 3091 3093 3086 3087 3089 3090 3091 3093 3097 3102
3052 3049 3047 3045 3042 3039 3037 3036 3037 3039 3040 3040 3038 3036 3036 3034 3033 3033 3034 3037 3039 3042 3046 3049 3051 3055 3060 3066 3068 3070 3075 3081 3086 3088 3088 3087 3089 3083 3084 3085 3086 3088 3089 3091 3094
3050 3048 3045 3044 3041 3038 3037 3038 3039 3039 3044 3043 3039 3038 3036 3037 3037 3036 3037 3041 3044 3047 3049 3051 3054 3056 3059 3065 3069 3072 3075 3082 3087 3088 3083 3082 3084 3082 3082 3082 3082 3083 3085 3086 3088
3048 3047 3044 3043 3040 3038 3037 3040 3040 3043 3041 3041 3041 3040 3041 3041 3042 3040 3042 3045 3046 3048 3051 3053 3058 3056 3061 3066 3068 3072 3073 3076 3077 3076 3077 3082 3080 3078 3077 3077 3078 3077 3078 3079 3083
3047 3045 3043 3042 3040 3039 3039 3040 3040 3042 3042 3042 3043 3043 3044 3042 3043 3047 3045 3049 3050 3052 3055 3055 3057 3058 3060 3064 3069 3071 3074 3076 3076 3074 3074 3075 3076 3075 3075 3075 3075 3075 3075 3077 3079
3045 3044 3043 3041 3039 3040 3039 3039 3040 3041 3042 3043 3044 3044 3046 3047 3046 3047 3048 3049 3050 3052 3053 3056 3058 3060 3063 3066 3068 3069 3075 3078 3077 3077 3074 3072 3073 3070 3075 3074 3074 3074 3074 3074 3076
3044 3042 3041 3040 3039 3040 3039 3040 3040 3041 3043 3044 3044 3045 3048 3049 3050 3049 3051 3050 3049 3051 3054 3056 3060 3064 3065 3066 3069 3071 3072 3075 3075 3075 3071 3065 3068 3071 3073 3072 3072 3072 3072 3072 3072
3042 3041 3040 3039 3041 3039 3041 3041 3041 3042 3044 3045 3045 3047 3049 3050 3051 3052 3051 3050 3050 3050 3055 3057 3058 3062 3065 3065 3066 3067 3071 3073 3073 3075 3075 3074 3071 3069 3071 3071 3071 3071 3071 3070 3070
3040 3039 3038 3038 3038 3039 3040 3041 3042 3043 3045 3046 3046 3046 3046 3050 3053 3051 3051 3051 3052 3052 3054 3056 3059 3062 3065 3068 3066 3066 3068 3069 3071 3070 3071 3072 3069 3068 3069 3069 3069 3069 3069 3069 3069
3038 3037 3036 3036 3037 3038 3039 3041 3042 3043 3043 3045 3047 3048 3050 3050 3050 3051 3050 3051 3053 3054 3055 3056 3058 3059 3060 3059 3060 3061 3063 3066 3068 3067 3068 3066 3067 3067 3068 3067 3067 3067 3066 3064 3065
3037 3035 3034 3034 3035 3037 3038 3040 3041 3042 3042 3044 3047 3049 3051 3052 3051 3051 3051 3052 3053 3056 3057 3058 3058 3058 3057 3057 3057 3058 3059 3060 3061 3060 3062 3064 3062 3064 3066 3066 3066 3065 3061 3061 3060
3035 3034 3032 3032 3033 3034 3036 3037 3039 3040 3041 3044 3046 3048 3049 3051 3051 3051 3052 3054 3055 3056 3057 3059 3059 3057 3056 3055 3055 3054 3055 3054 3054 3056 3055 3057 3054 3058 3057 3057 3057 3055 3055 3055 3055
3033 3032 3031 3031 3030 3032 3033 3033 3036 3038 3040 3041 3044 3046 3047 3049 3049 3049 3049 3050 3052 3054 3056 3057 3057 3057 3056 3055 3054 3053 3047 3047 3047 3048 3050 3051 3052 3053 3051 3049 3048 3047 3046 3046 3049
Wind_Speed
21 22 21 20 20 22 23 24 23 23 24 22 21 19 19 21 21 22 22 23 31 25 27 36 35 39 41 47 45 48 32 34 34 24 21 24 22 23 19 17 24 27 28 20 27
22 22 22 20 19 21 22 23 22 22 22 20 18 17 14 14 16 20 22 27 27 23 25 35 30 33 38 41 41 48 37 34 35 32 22 24 18 28 20 17 21 25 28 28 25
24 23 23 20 18 19 22 23 21 20 20 17 15 14 13 13 13 8 15 18 26 34 22 30 28 27 32 29 40 37 48 31 27 23 30 21 24 23 20 14 20 26 29 28 27
27 24 23 21 17 18 21 22 20 18 18 14 12 11 11 9 4 9 11 14 18 31 28 28 31 29 31 31 34 28 36 32 27 26 27 20 23 24 18 18 21 23 27 28 28
28 26 23 22 16 18 20 21 18 16 15 11 9 9 10 7 5 9 9 12 15 28 41 29 30 31 27 32 27 34 22 27 24 29 18 21 23 28 17 21 21 20 26 26 31
29 27 23 21 15 17 19 19 16 14 13 9 7 6 9 5 9 10 11 9 16 18 27 40 28 24 25 22 27 28 18 27 30 22 26 27 24 30 29 19 23 20 24 25 28
30 28 24 21 15 16 19 18 15 13 12 9 8 7 9 9 9 9 9 9 16 19 24 27 32 32 27 20 29 15 28 32 28 24 24 29 26 31 32 19 22 21 22 25 30
31 28 24 19 15 15 17 16 14 11 12 10 10 10 8 11 9 8 7 11 17 26 27 31 30 31 26 23 24 27 26 27 26 28 24 28 26 32 39 33 21 15 16 23 29
31 29 24 18 14 15 16 14 12 9 10 9 8 10 6 7 8 8 6 9 15 15 23 30 23 26 31 31 28 26 26 29 22 23 29 29 24 22 28 32 26 20 12 16 29
30 28 22 17 14 15 15 13 10 6 8 9 6 4 5 5 6 8 6 7 8 16 17 18 19 26 29 34 32 27 23 31 24 22 20 23 22 17 23 43 45 27 19 18 28
29 26 20 15 13 14 14 11 8 3 8 8 7 7 9 7 9 11 5 4 8 16 20 13 15 27 29 29 21 25 23 25 24 15 18 20 17 20 21 30 37 37 25 22 21
28 25 19 14 12 14 14 10 4 1 5 13 8 7 5 4 7 7 3 5 5 8 21 12 12 21 24 24 15 24 19 15 12 10 13 17 22 23 24 26 30 36 35 29 22
26 23 17 13 12 13 12 8 3 3 4 11 11 7 5 3 5 7 5 5 7 8 25 13 10 11 15 18 19 20 19 18 14 11 12 10 20 23 24 23 24 31 45 35 30
25 21 17 12 11 12 11 6 2 4 3 10 13 8 7 9 8 5 4 8 7 10 23 12 18 21 18 17 18 19 16 18 13 15 10 18 8 19 22 24 27 30 36 45 48
23 19 16 13 10 11 10 3 4 5 2 8 10 6 8 9 10 11 8 8 10 19 14 9 15 22 18 16 13 17 16 14 12 13 6 12 9 17 9 19 23 25 26 26 35
22 17 15 11 9 9 7 3 6 3 3 6 7 7 8 8 11 14 11 11 13 8 10 11 15 21 15 17 9 14 17 11 8 9 10 18 15 13 9 9 14 18 24 27 28
20 17 14 10 9 7 4 3 5 4 3 6 9 8 9 9 9 12 16 13 7 7 12 5 12 11 17 20 15 17 22 8 5 5 6 2 13 17 5 8 12 11 16 21 22
18 16 14 9 6 4 4 6 3 6 6 6 9 13 8 9 9 10 13 9 10 8 13 4 3 19 20 17 12 20 20 6 5 6 10 5 7 8 11 13 8 12 17 21 24
17 15 12 9 5 2 5 4 3 6 6 8 9 9 7 7 9 5 8 5 6 9 3 4 3 22 20 18 17 18 21 6 2 4 1 7 8 13 7 9 13 11 12 15 24
15 14 10 7 3 3 6 5 6 7 6 5 2 4 7 9 7 5 1 2 0 8 6 4 6 20 20 19 16 12 11 5 2 4 4 5 7 4 6 4 3 6 7 12 18
14 13 9 6 3 4 7 7 10 9 8 5 4 11 8 7 9 5 2 6 8 10 12 7 4 7 18 17 17 16 10 7 2 1 3 1 4 8 11 9 6 3 2 5 12
13 11 8 3 2 4 4 8 7 9 11 11 7 7 4 5 5 3 3 2 1 11 9 7 4 10 13 13 17 9 15 16 8 6 8 5 2 7 12 9 2 1 5 5 3
11 9 4 1 4 4 6 8 8 10 10 8 7 8 8 4 1 3 3 4 8 13 10 7 4 6 5 8 17 19 17 12 14 16 10 8 4 8 15 19 19 19 10 6 8
10 6 4 1 3 7 8 7 9 9 8 8 10 9 6 3 4 2 3 4 13 7 7 8 6 6 6 2 7 15 21 20 20 14 18 25 20 10 14 15 15 14 20 20 21
7 5 5 2 5 8 9 10 8 9 8 9 7 7 6 2 3 3 5 5 11 9 6 8 4 9 8 8 8 11 13 20 28 34 24 23 25 22 22 22 19 20 30 29 28
5 6 4 4 5 8 10 11 10 11 11 11 7 8 8 5 6 5 5 6 6 12 7 9 5 7 9 11 13 16 18 19 20 26 29 30 34 28 29 28 28 29 31 34 35
5 5 2 2 6 9 11 12 15 12 11 10 11 9 7 7 7 6 10 11 7 6 9 7 5 3 5 9 8 13 20 22 23 22 18 26 23 21 22 25 23 24 27 26 20
Wind_Direction
338 324 317 310 312 318 315 312 318 323 318 317 314 305 293 275 260 248 249 238 226 229 217 214 215 210 206 214 217 210 220 216 212 208 201 209 210 197 193 207 203 195 211 201 203
338 330 320 311 312 318 315 316 325 325 318 320 317 309 298 289 273 255 250 230 223 209 209 206 208 208 206 211 213 207 210 214 204 216 213 220 204 203 198 206 213 209 203 207 202
339 329 324 311 313 317 317 321 326 322 322 326 322 318 310 304 297 261 218 230 222 214 195 202 194 208 206 208 209 213 224 213 213 213 211 217 216 211 203 194 213 214 207 202 198
342 332 324 317 312 315 321 324 326 322 326 330 335 344 335 321 306 259 242 241 224 213 198 193 191 195 207 203 211 209 222 222 218 227 215 208 215 210 200 213 220 219 213 211 207
345 336 326 320 310 314 324 324 324 319 325 326 335 350 0 340 272 259 256 252 233 217 202 191 189 191 199 202 206 212 211 212 222 204 212 200 206 217 213 221 225 227 216 208 207
345 339 330 322 310 312 327 325 322 314 320 321 316 342 6 355 305 267 252 261 219 213 193 186 185 184 201 205 197 211 202 204 216 212 215 215 209 209 210 224 224 225 224 214 206
343 341 334 325 313 316 329 325 317 310 319 309 285 304 327 311 300 283 266 253 213 202 200 203 188 180 188 191 198 200 197 197 208 200 201 195 213 205 201 219 215 219 221 214 204
342 340 336 328 318 322 327 324 314 312 324 306 288 297 303 313 292 285 267 250 219 192 198 207 193 178 181 188 186 195 195 194 206 207 207 201 215 212 209 210 217 206 216 210 203
341 339 336 332 325 327 328 327 314 315 330 325 306 297 281 309 285 286 299 259 253 232 200 203 185 166 171 182 185 187 191 198 198 204 213 210 224 222 210 223 218 214 222 221 207
341 338 337 333 330 332 328 328 315 318 342 349 342 325 290 291 287 302 317 281 262 238 203 181 183 165 175 178 184 183 195 199 199 199 205 219 222 233 220 219 217 223 223 234 215
339 337 337 335 334 333 331 334 326 339 2 6 315 285 267 279 288 304 312 299 267 190 180 175 168 168 170 181 187 193 198 193 205 192 208 220 230 236 252 228 232 219 228 231 233
339 337 339 340 340 340 335 337 319 347 7 9 348 343 328 296 292 302 293 239 237 157 182 176 172 153 171 176 174 170 168 163 185 224 211 223 236 242 231 241 238 228 229 225 237
341 338 340 345 346 344 342 342 329 182 48 6 13 5 356 5 299 275 224 201 219 165 175 161 206 138 149 162 160 158 168 170 181 184 193 221 242 236 232 231 231 223 230 233 229
342 339 345 352 348 349 349 355 40 147 91 6 13 354 17 13 357 147 152 171 202 161 166 186 155 175 155 159 171 175 175 164 155 163 202 204 254 220 230 231 230 225 230 231 232
344 344 350 354 350 349 356 23 104 111 3 353 6 12 20 38 347 115 145 138 179 133 156 197 155 162 166 164 167 177 172 165 174 199 256 203 240 250 218 232 238 233 231 229 222
346 349 355 359 351 350 9 101 107 73 51 5 24 41 37 23 91 102 101 124 173 101 152 154 157 167 157 169 157 162 157 163 192 224 243 237 216 243 220 251 240 246 242 240 230
348 350 359 360 357 353 44 125 64 30 92 29 48 56 57 78 114 83 93 111 151 131 132 137 179 171 169 172 172 156 150 139 180 198 237 208 217 239 182 284 282 261 233 234 233
348 351 -0 5 2 5 92 95 70 95 98 108 81 78 87 93 118 124 96 96 167 106 131 109 147 160 169 169 176 179 170 168 198 193 202 170 234 241 239 238 259 264 243 220 223
345 349 3 2 9 34 109 71 116 140 129 106 78 67 67 91 123 115 103 95 137 151 196 120 98 170 167 170 161 180 212 215 306 32 102 187 232 249 282 263 260 270 241 234 229
339 348 359 15 32 109 96 106 125 137 154 118 60 108 114 129 129 122 120 262 94 200 135 121 122 181 193 181 186 182 194 191 225 174 224 160 239 165 166 136 223 267 262 246 235
335 342 356 31 68 127 101 123 126 133 130 144 119 142 137 142 158 157 229 277 249 205 196 145 160 165 191 201 186 186 202 209 212 262 300 211 172 168 154 118 89 46 303 276 251
332 333 341 46 119 135 125 147 136 129 124 137 128 133 147 163 173 214 219 202 207 174 159 169 134 157 198 208 198 218 222 215 225 209 243 315 312 194 188 178 165 342 66 49 339
330 328 353 124 127 149 156 154 150 144 145 145 140 146 154 162 216 186 200 200 171 160 150 156 167 145 184 235 241 230 226 218 229 245 224 225 228 200 240 245 263 275 261 286 335
326 313 331 243 178 177 170 174 166 161 160 152 148 145 132 136 175 233 226 203 177 159 160 161 190 209 232 243 200 227 228 227 227 227 230 234 252 259 268 267 271 267 258 254 296
319 303 311 269 215 187 180 186 181 175 177 173 163 170 178 178 136 173 192 202 186 186 189 190 232 223 246 250 238 244 236 234 232 243 240 250 252 257 262 260 267 266 267 275 290
297 306 296 268 221 195 198 197 189 188 174 193 177 196 190 190 182 181 169 169 183 209 203 223 260 254 259 259 264 262 255 252 243 244 251 253 261 261 260 262 264 267 264 262 264
296 289 298 265 203 193 209 209 206 194 191 194 193 181 197 202 196 198 182 186 192 195 215 227 238 255 252 268 272 269 258 253 253 244 250 252 263 275 266 267 270 265 265 260 251